STARLINK-3693 (52104 NORAD) Tracking and Keplerian Element Data

This shows tracking and keplerian element data for the satellite.

Feedback or suggestion? Click here.




ElementValue
Catalog52104
NameSTARLINK-3693
Epoch Orbit595
Epoch Day107.68777013
Epoch Year2022
RAAN354.4591
Inclination53.2049
Eccentricity0.0009247
Argument of Perigee270.8695
Mean Anonmoly88.2912
Mean Motion16.18372536
Decay Rate0.04482287
L11 52104U 22029S 22107.68777013 .04482287 11755-4 25363-2 0 9997
L22 52104 53.2049 354.4591 0009247 270.8695 88.2912 16.18372536 5958



Live tracking and technical data element details for STARLINK-3693 (NORAD 52104). STARLINK-3693 can be tracked NOW for your location showing map with azimuth and elevation plus other details from your city location.







IsCatalogInMostPopularTable: catalog: 52104, numindb: 22
Update: records affected: 1



GetName: 52104 STARLINK-3693

Hit Count: updated at: Sun, 28 May 2023 06:03:37 GMT